Content
SEND FEEDBACK

Daily
Averages
Monthly
Summary
United States of America

BEAVER ISLAND, MICHIGAN


Home > North America > United States > Michigan
Elevation: 627 feet     Latitude: 45 43N     Longitude: 085 31W

WEATHER
 
SELECT A DAY
Number of Records: 327,882;   Date Range: 9/12/01 - 10/19/14
 
SHARE

PRINT THIS DATA

[ ← Previous Day ]
WEATHER ALMANAC - JULY 13, 2014
[ Next Day → ]
[ °C ]   °F
Weather ElementAverageHighLow
Temperature63.1 °F71.4 °F (8:34 am)53.4 °F (12:55 am)
Dewpoint56.3 °F62.1 °F (1:56 pm)47.8 °F (4:16 am)
Humidity81.3 %100 % (12:15 am)44 % (2:15 pm)
Barometer29.81 in29.86 in (12:16 am)29.74 in (7:34 am)
Wind Speed5.6 mph11.5 mph (1:16 am)
Wind Gust19.6 mph (8:16 pm)
Weather ElementAverage
Visibility9 mi
Wind DirectionSSW (196.3 °)

Weather ElementTotal
Precipitation---
Heating Degree Days2.6 (Base 65)
Growing Degree Days12.4 (Base 50)
Averaged from 71 records on July 13, 2014
WEATHER CONDITIONS BREAKOUT
WIND DIRECTION BREAKOUT
WEATHER BY HOUR - JULY 13, 2014
[ °C ]   °F
Local TimeTemperatureDewpointHumidityBarometerVisibilityWind DirectionWind SpeedGust SpeedPrecipitationEventsConditions
12:15 AM59.9 °F59.9 °F100 %29.80 in5.0 miCalmOvercast
12:36 AM59.9 °F59.9 °F100 %29.80 in5.0 miWSW (240°)4.6 mphOvercast
12:55 AM59.9 °F59.9 °F100 %29.78 in7.0 miCalmMostly Cloudy
1:15 AM59.5 °F59.5 °F100 %29.79 in5.0 miWSW (240°)4.6 mphScattered Clouds
1:36 AM59.0 °F59.0 °F100 %29.79 in7.0 miSW (230°)4.6 mphClear
1:55 AM59.0 °F59.0 °F100 %29.78 in7.0 miCalmClear
2:15 AM57.7 °F57.7 °F100 %29.78 in7.0 miWSW (240°)3.5 mphClear
2:36 AM57.6 °F57.6 °F100 %29.77 in7.0 miCalmClear
2:55 AM58.5 °F58.5 °F100 %29.77 in10.0 miCalmScattered Clouds
3:15 AM58.6 °F58.6 °F100 %29.76 in10.0 miCalmClear
3:36 AM59.0 °F58.6 °F99 %29.75 in10.0 miCalmClear
3:55 AM58.1 °F58.1 °F100 %29.75 in10.0 miWest (270°)4.6 mphClear
4:15 AM58.1 °F58.1 °F100 %29.74 in10.0 miWest (270°)4.6 mphClear
4:36 AM58.3 °F58.3 °F100 %29.75 in7.0 miWSW (250°)5.8 mphClear
4:55 AM59.0 °F59.0 °F100 %29.75 in10.0 miWSW (240°)9.2 mphClear
5:15 AM59.2 °F59.2 °F100 %29.75 in10.0 miWSW (240°)10.4 mphClear
5:36 AM59.4 °F59.4 °F100 %29.75 in10.0 miWSW (240°)11.5 mphClear
5:55 AM59.2 °F59.2 °F100 %29.75 in7.0 miWSW (240°)11.5 mphClear
6:15 AM58.5 °F58.5 °F100 %29.75 in4.0 miWSW (240°)8.1 mphMostly Cloudy
6:35 AM59.0 °F59.0 °F100 %29.75 in3.0 miWSW (250°)9.2 mphOvercast
6:55 AM59.4 °F59.4 °F100 %29.76 in3.0 miWSW (250°)10.4 mphOvercast
7:15 AM60.1 °F60.1 °F100 %29.76 in3.0 miWSW (240°)10.4 mphOvercast
7:35 AM61.0 °F61.0 °F100 %29.77 in5.0 miSW (230°)10.4 mph16.1 mphOvercast
7:55 AM60.8 °F60.8 °F100 %29.77 in7.0 miSW (230°)9.2 mphOvercast
8:15 AM60.8 °F60.8 °F100 %29.78 in7.0 miSW (230°)9.2 mphOvercast
8:35 AM61.3 °F61.3 °F100 %29.78 in10.0 miSW (230°)8.1 mphOvercast
8:55 AM62.6 °F62.1 °F98 %29.78 in10.0 miSW (230°)11.5 mph18.4 mphOvercast
9:15 AM61.7 °F61.2 °F98 %29.79 in10.0 miWSW (240°)8.1 mph19.6 mphOvercast
9:35 AM61.9 °F61.3 °F98 %29.79 in10.0 miWSW (240°)10.4 mphOvercast
9:55 AM62.4 °F61.2 °F96 %29.80 in10.0 miWest (260°)11.5 mphOvercast
10:15 AM63.5 °F61.3 °F93 %29.80 in10.0 miWSW (250°)10.4 mphMostly Cloudy
10:35 AM66.2 °F61.0 °F83 %29.80 in10.0 miWNW (300°)5.8 mphMostly Cloudy
10:55 AM66.4 °F59.0 °F77 %29.80 in10.0 miWNW (300°)8.1 mphScattered Clouds
11:15 AM66.4 °F58.5 °F76 %29.80 in10.0 miNW (310°)10.4 mphClear
11:35 AM66.6 °F57.7 °F73 %29.80 in10.0 miNW (310°)9.2 mph16.1 mphScattered Clouds
11:55 AM68.5 °F58.1 °F69 %29.81 in10.0 miNW (320°)8.1 mphScattered Clouds
12:15 PM67.3 °F57.0 °F70 %29.81 in10.0 miNW (310°)9.2 mphMostly Cloudy
12:35 PM66.0 °F56.5 °F71 %29.82 in10.0 miNW (320°)6.9 mphOvercast
12:55 PM65.8 °F54.9 °F68 %29.82 in10.0 miNW (320°)11.5 mph17.3 mphOvercast
1:15 PM67.3 °F55.6 °F66 %29.83 in10.0 miNW (320°)6.9 mphMostly Cloudy
1:35 PM68.7 °F54.9 °F61 %29.83 in10.0 miNorth (350°)8.1 mphMostly Cloudy
1:55 PM67.1 °F54.1 °F63 %29.83 in10.0 miNW (320°)6.9 mphMostly Cloudy
2:15 PM66.9 °F54.5 °F64 %29.84 in10.0 miNNW (330°)5.8 mphOvercast
2:35 PM68.4 °F54.3 °F61 %29.84 in10.0 miWNW (300°)4.6 mphMostly Cloudy
2:55 PM70.3 °F53.8 °F56 %29.83 in10.0 miNW (320°)5.8 mphScattered Clouds
3:15 PM70.7 °F54.0 °F55 %29.83 in10.0 miWNW (290°)6.9 mphScattered Clouds
3:35 PM70.3 °F52.0 °F52 %29.84 in10.0 miWNW (290°)6.9 mphClear
3:55 PM70.3 °F52.2 °F52 %29.84 in10.0 miNW (320°)6.9 mphClear
4:15 PM70.9 °F50.7 °F49 %29.84 in10.0 miWest (260°)8.1 mphClear
4:35 PM70.0 °F48.7 °F47 %29.84 in10.0 miNW (320°)6.9 mphClear
4:55 PM70.7 °F47.8 °F44 %29.85 in10.0 miNW (320°)5.8 mphClear
5:15 PM71.4 °F49.3 °F45 %29.85 in10.0 miNW (320°)3.5 mphClear
5:35 PM70.7 °F50.2 °F48 %29.85 in10.0 miCalmClear
5:55 PM71.1 °F50.5 °F48 %29.85 in10.0 miWSW (240°)4.6 mphClear
6:15 PM70.7 °F49.8 °F48 %29.85 in10.0 miCalmClear
6:35 PM70.2 °F51.3 °F51 %29.85 in10.0 miSW (230°)5.8 mphClear
7:15 PM68.9 °F50.2 °F51 %29.85 in10.0 miEast (100°)6.9 mphClear
7:35 PM68.2 °F50.2 °F53 %29.85 in10.0 miESE (110°)4.6 mphClear
7:55 PM68.0 °F51.6 °F56 %29.85 in10.0 miESE (120°)3.5 mphClear
8:15 PM65.8 °F54.7 °F67 %29.85 in10.0 miESE (120°)3.5 mphClear
8:35 PM64.8 °F55.4 °F72 %29.85 in10.0 miSE (140°)3.5 mphClear
8:55 PM63.5 °F56.1 °F77 %29.85 in10.0 miSSE (160°)4.6 mphClear
9:15 PM61.7 °F55.8 °F81 %29.86 in10.0 miCalmClear
9:35 PM59.2 °F55.2 °F87 %29.86 in10.0 miCalmClear
9:55 PM57.6 °F55.0 °F91 %29.86 in10.0 miCalmClear
10:15 PM55.6 °F54.0 °F94 %29.86 in10.0 miCalmClear
10:36 PM54.0 °F53.8 °F99 %29.86 in10.0 miCalmClear
10:55 PM53.4 °F53.2 °F99 %29.86 in10.0 miCalmClear
11:15 PM53.6 °F53.1 °F98 %29.86 in10.0 miCalmClear
11:36 PM56.5 °F53.6 °F90 %29.86 in10.0 miSouth (170°)4.6 mphScattered Clouds
11:55 PM59.0 °F52.9 °F80 %29.85 in10.0 miSouth (180°)3.5 mphMostly Cloudy
Hourly data recorded from KSJX, located miles away from Beaver Island, Michigan







STORIES FROM OUR PARTNERS